Torna al catalogo

GLOBALSTAR M056

AttivoComunicazioniLEO
NORAD 25945·PAYLOAD·🇺🇸 United States

Lanciato Oct 18, 1999 da Baikonur Cosmodrome

Loading…

Prossimi Passaggi (prossime 24 ore)

TLE

AggiornatoSource: Space-Track

Epoca: Sep 14, 2026, 09:27 UTC

1 25945U 99058C   26257.39401480 -.00000038  00000-0  57806-3 0  9998
2 25945  51.9971  48.6904 0001142  30.2687 344.5374 12.04789425217376

Traccia GLOBALSTAR M056 in tempo reale con AllMySat

Download on the App Store